STARLINK-1926 (46757 NORAD) Tracking and Keplerian Element Data

This shows tracking and keplerian element data for the satellite.

Feedback or suggestion? Click here.




ElementValue
Catalog46757
NameSTARLINK-1926
Epoch Orbit1374
Epoch Day17.91667824
Epoch Year2021
RAAN111.7916
Inclination53.0538
Eccentricity0.0001201
Argument of Perigee49.8321
Mean Anonmoly164.6781
Mean Motion15.06421136
Decay Rate-0.00036068
L11 46757U 20074U 21017.91667824 -.00036068 00000-0 -24134-2 0 9997
L22 46757 53.0538 111.7916 0001201 49.8321 164.6781 15.06421136 13749

Live tracking and technical data element details for STARLINK-1926 (NORAD 46757). STARLINK-1926 can be tracked NOW for your location showing map with azimuth and elevation plus other details from your city location.

Track the satellite on the map from your city or location and see movement details for azimuth, elevation, latitude, longitude, range, height, and movement on the map or in text.







IsCatalogInMostPopularTable: catalog: 46757, numindb: 31
Update: records affected: 1



GetName: 46757 STARLINK-1926

Hit Count: updated at: Mon, 18 Jan 2021 16:23:57 GMT